Regional Weather Roundup
Issued by NWS

Home | Current Version | Previous Version | Graphics & Text | Print | Product List | Glossary On
Versions: 1 2 3 4 5 6 7 8 9 10 11 12 13 14 15 16 17 18 19 20 21 22 23 24 25 26 27 28
000
ASUS45 KBOU 272310
RWRCO

WEATHER ROUNDUP FOR COLORADO
NATIONAL WEATHER SERVICE DENVER/BOULDER CO
500 PM MDT SUN MAY 27 2018

NOTE: "FAIR" INDICATES FEW OR NO CLOUDS BELOW 12000 FEET WITH NO
SIGNIFICANT WEATHER AND/OR OBSTRUCTIONS TO VISIBILITY.

COZ001>005-013-030-031-280000-
...NORTHWEST COLORADO...

CITY           SKY/WX    TMP DP  RH WIND       PRES   REMARKS
CRAIG          FAIR      81  28  14 W8        29.85F
HAYDEN         FAIR      76  28  17 N6        29.90F
MEEKER         FAIR      81  10   7 SW10      29.88F
RANGELY        FAIR      83  13   7 SW15G24   29.83F
RABBIT EARS PA FAIR      61  28  29 CALM      30.17F
STEAMBOAT SPGS FAIR      76  29  17 W7        29.89F
WALDEN         PTSUNNY   54  43  66 E17G23    30.02F
$$

COZ006>008-011-280000-
...WEST CENTRAL VALLEYS...

CITY           SKY/WX    TMP DP  RH WIND       PRES   REMARKS
GRAND JUNCTION FAIR      82  20  10 W18G24    29.80F
MONTROSE       FAIR      82  12   7 W10G23    29.85F
EAGLE          FAIR      83  18   9 W15G22    29.86S
RIFLE          FAIR      85   8   5 W15G23    29.80F
DELTA          FAIR      89  14   6 W5G18     29.81F
NUCLA          FAIR      81  10   7 W20G31    29.92S
$$

COZ017>023-064>068-280000-
...SOUTHWEST COLORADO...

CITY           SKY/WX    TMP DP  RH WIND       PRES   REMARKS
DURANGO        FAIR      76  11   8 W9G25     29.97F
CORTEZ         FAIR      79  18  10 SW14G25   29.93F
PAGOSA SPRINGS FAIR      76 -11   3 SW10G21   30.04S
TELLURIDE      FAIR      68   6   8 SE20G25   30.12S
WOLF CREEK PAS FAIR      54   7  15 SW20G32   30.35S
$$

COZ009-010-012-014-032>034-037-058>063-280000-
...CENTRAL COLORADO...

CITY           SKY/WX    TMP DP  RH WIND       PRES   REMARKS
ASPEN          FAIR      77  19  11 NW14G23   29.93S
BUENA VISTA    FAIR      79  -5   3 SE18G33   29.95F
COPPER MTN     FAIR      59  -4   7 SE16G33   30.27F
BERTHOUD PASS  FAIR      43  32  65 SE21G26   30.32F
COTTONWOOD PAS FAIR      73 -38   1 SE23      30.10F
GUNNISON       FAIR      77   7   7 SW18G25   29.94F
GRANBY         FAIR      71  30  21 SE13G20   29.98F
KREMMLING      FAIR      82   0   4 SE15      29.91F
LEADVILLE      FAIR      66   3   8 S22G33    30.09F
MONARCH PASS   FAIR      61  -2   8 MISG      30.38S
SALIDA         FAIR      82  -6   3 S16G36    29.99F
SUNLIGHT       FAIR      55  12  18 NW8       30.22S
WILKERSON PASS FAIR      66  -8   5 SW8       30.26F
$$

COZ069>075-280000-
...SAN LUIS VALLEY/SANGRE DE CRISTO MOUNTAINS...

CITY           SKY/WX    TMP DP  RH WIND       PRES   REMARKS
ALAMOSA        FAIR      79   3   5 SW17G29   29.97F
DEL NORTE      FAIR      76   6   7 SW17G24   30.01F
LA VETA PASS   FAIR      68   3   8 S25G40    30.28F
SAGUACHE       NOT AVBL
$$

COZ035-036-038>040-280000-
...NORTHERN COLORADO FRONT RANGE...

CITY           SKY/WX    TMP DP  RH WIND       PRES   REMARKS
DENVER INTL AP TSTM      80  34  19 S13G33    29.80R
AURORA         PTSUNNY   77  40  25 SW8       29.82F THUNDER
FRONT RANGE AP PTSUNNY   81  36  19 S8G20     29.83F
ERIE MUNI ARPT FAIR      85  42  22 N10       29.83S
BOULDER MUN AP FAIR      81  50  34 NW6       29.80F
CENTENNIAL     PTSUNNY   79  51  37 NW9       29.83F
BROOMFIELD     PTSUNNY   84  46  26 NW10G17   29.83F
FORT COLLINS   FAIR      86  50  28 NE7       29.81S
LONGMONT       FAIR      85  42  21 NE7       29.81S
$$

COZ041-046-047-076>085-087-088-280000-
...PIKES PEAK/PALMER DIVIDE AND SOUTHERN FOOTHILLS...

CITY           SKY/WX    TMP DP  RH WIND       PRES   REMARKS
COLO. SPRINGS  PTSUNNY   85  40  20 S16G26    29.85F
A. F. ACADEMY  FAIR      79  38  22 CALM      29.87F
SCHRIEVER AFB  NOT AVBL
CHEYENNE MTN   FAIR      77  31  19 S8        29.86F
ELLICOTT         N/A    N/A N/A N/A S17G26    29.83F
FALCON         FAIR      78  35  20 SE12G18   29.92F
FORT CARSON    FAIR      88  27  11 S17G25    29.81F
LIMON          FAIR      80  44  27 E23G37    29.83F
MONUMENT HILL  FAIR      77  41  27 SE15      29.94F
CANON CITY     SUNNY     90  34  13 E16       29.76F
WALSENBURG     NOT AVBL
TRINIDAD       FAIR      90  14   6 S29G46    29.83F
$$

COZ042>045-048>051-090-091-280000-
...NORTHEAST COLORADO...

CITY           SKY/WX    TMP DP  RH WIND       PRES   REMARKS
GREELEY ARPT   FAIR      84  49  29 SE24G41   29.76F
AKRON          TSTM      63  51  65 SW25G52   29.81R
BURLINGTON     FAIR      81  55  40 SE16      29.78F
WRAY           FAIR      86  59  39 SE18G25   29.76F
YUMA           FAIR      81  52  36 SE12      29.76F THUNDER
STERLING       FAIR      81  59  47 E9        29.75F THUNDER HAZE
HOLYOKE        FAIR      73  61  64 NE9       29.78F
FORT MORGAN    PTSUNNY   78  46  32 N20G31    29.82R
$$

COZ086-089-092>099-280000-
...SOUTHEAST COLORADO...

CITY           SKY/WX    TMP DP  RH WIND       PRES   REMARKS
PUEBLO         FAIR      92  35  13 S20G26    29.71F
LA JUNTA       FAIR      95  33  11 S33G48    29.71F
LAMAR          FAIR      96  45  17 S30G51    29.69F
SPRINGFIELD      N/A     89  46  22 S37G52    29.80F
$$




USA.gov is the U.S. government's official web portal to all federal, state and local government web resources and services.